Tracking 31027 objects as of 19-Jul-2025
HD Live streaming from Space Station
objects crossing your sky now

STARLINK-5571

Track STARLINK-5571 now!
10-day predictions
STARLINK-5571 is classified as:


NORAD ID: 55380
Int'l Code: 2023-013BB
Perigee: 565.4 km
Apogee: 567.0 km
Inclination: 43.0 °
Period: 95.8 minutes
Semi major axis: 6937 km
RCS: Unknown
Launch date: January 26, 2023
Source: United States (US)
Launch site: AIR FORCE EASTERN TEST RANGE (AFETR)
Your satellite tracking list
SL-8 R/B
Track 1 satellite(s)




NASA's NSSDC Master Catalog

Two Line Element Set (TLE):
1 55380U 23013BB  25199.49914874 -.00000282  00000-0 -57705-5 0  9995
2 55380  43.0043 119.6238 0001118 254.1134 105.9585 15.02534304136637
Source of the keplerian elements: AFSPC